TimeCST,TemperatureF,Dew PointF,Humidity,Sea Level PressureIn,VisibilityMPH,Wind Direction,Wind SpeedMPH,Gust SpeedMPH,PrecipitationIn,Events,Conditions,WindDirDegrees,DateUTC
12:53 AM,32.0,27.0,82,30.45,10.0,NNW,3.5,-,N/A,,Clear,340,2012-11-17 06:53:00
1:53 AM,30.9,27.0,85,30.45,10.0,Calm,Calm,-,N/A,,Clear,0,2012-11-17 07:53:00
2:53 AM,30.0,27.0,88,30.45,10.0,Calm,Calm,-,N/A,,Clear,0,2012-11-17 08:53:00
3:53 AM,30.0,26.1,85,30.46,10.0,Calm,Calm,-,N/A,,Clear,0,2012-11-17 09:53:00
4:53 AM,28.9,25.0,85,30.47,10.0,Calm,Calm,-,N/A,,Clear,0,2012-11-17 10:53:00
5:53 AM,28.9,25.0,85,30.48,10.0,NW,3.5,-,N/A,,Clear,320,2012-11-17 11:53:00
6:53 AM,28.9,25.0,85,30.49,8.0,WNW,4.6,-,N/A,,Clear,300,2012-11-17 12:53:00
7:53 AM,35.1,28.9,78,30.51,8.0,NW,3.5,-,N/A,,Clear,310,2012-11-17 13:53:00
8:53 AM,43.0,34.0,71,30.50,8.0,ENE,10.4,-,N/A,,Clear,60,2012-11-17 14:53:00
9:53 AM,50.0,36.0,59,30.50,9.0,NE,5.8,-,N/A,,Clear,40,2012-11-17 15:53:00
10:53 AM,53.1,34.0,48,30.49,10.0,NE,4.6,-,N/A,,Clear,40,2012-11-17 16:53:00
11:53 AM,55.9,35.1,45,30.46,10.0,East,3.5,-,N/A,,Clear,80,2012-11-17 17:53:00
12:53 PM,57.0,32.0,39,30.44,10.0,Calm,Calm,-,N/A,,Clear,0,2012-11-17 18:53:00
1:53 PM,59.0,30.9,35,30.42,10.0,East,5.8,-,N/A,,Clear,100,2012-11-17 19:53:00
2:53 PM,60.1,32.0,35,30.40,10.0,East,4.6,-,N/A,,Clear,80,2012-11-17 20:53:00
3:53 PM,57.9,32.0,37,30.40,10.0,East,5.8,-,N/A,,Clear,80,2012-11-17 21:53:00
4:53 PM,54.0,32.0,43,30.40,10.0,Calm,Calm,-,N/A,,Clear,0,2012-11-17 22:53:00
5:53 PM,46.0,35.1,66,30.40,9.0,Calm,Calm,-,N/A,,Clear,0,2012-11-17 23:53:00
6:53 PM,39.9,34.0,79,30.40,10.0,NNW,3.5,-,N/A,,Clear,330,2012-11-18 00:53:00
7:53 PM,39.0,33.1,79,30.40,10.0,Calm,Calm,-,N/A,,Clear,0,2012-11-18 01:53:00
8:53 PM,37.0,32.0,82,30.41,10.0,Calm,Calm,-,N/A,,Clear,0,2012-11-18 02:53:00
9:53 PM,34.0,30.0,85,30.42,10.0,Calm,Calm,-,N/A,,Clear,0,2012-11-18 03:53:00
10:53 PM,33.1,30.0,89,30.42,9.0,Calm,Calm,-,N/A,,Clear,0,2012-11-18 04:53:00
11:53 PM,34.0,28.9,82,30.41,10.0,Calm,Calm,-,N/A,,Clear,0,2012-11-18 05:53:00